[[{"header":{"parameterUnit":"m.s-1","parameterCategory":1,"la1":30.2991,"la2":30.254,"lo1":-89.0895,"lo2":-89.0444,"dy":0.0017,"dx":0.0017,"nx":28,"ny":28,"refTime":"2024-08-13T09:00:00:Z","depth":0,"parameterNumber":2,"parameterNumberName":"U-component_of_WINDS"},"data":[0,0,0,0,0,0,0,0,0,0,0,0,0,0,0,0,0,0,0,0,0,0,0,0,0,0,0,0,0,0,0,0,0,0,0,0,0,0,0,0,0,0,0,0,0,0,0,0,0,0,0,0,0,0,0,0,0,0,1.9586,1.9588,0,1.9754,1.9756,1.9758,1.9785,1.9783,1.9782,1.978,1.9958,1.9963,1.997,0,0,0,0,0,0,0,0,0,0,0,0,0,1.929,1.9296,1.9586,1.9588,1.959,1.9754,1.9756,1.9759,1.9785,1.9783,1.9781,1.978,1.9956,1.9963,1.997,0,0,0,0,0,0,0,0,0,0,0,0,0,1.9435,1.9297,1.9586,1.9623,1.9628,1.9754,1.9757,1.9759,1.9785,1.9783,1.9781,1.9779,1.9953,1.9962,1.9971,2.0073,0,0,1.9999,2.0003,0,0,0,0,0,0,0,0,1.9427,1.9446,1.9615,1.962,1.9626,1.9746,1.9717,1.9865,1.9786,1.9726,1.978,1.9778,1.9889,1.9904,1.994,2.0081,2.0089,2.0,2.0006,2.0009,2.0012,0,0,0,0,0,0,0,1.9416,1.9439,1.9653,1.9618,1.9625,1.9632,1.965,1.9745,1.9818,1.9731,1.9733,1.9752,1.9892,1.9931,1.9945,2.0091,2.0,2.0008,2.0014,2.0017,2.0323,2.0325,0,0,0,0,0,0,1.9399,1.943,1.9647,1.9658,1.9519,1.9639,1.966,1.971,1.9817,1.9831,1.9754,1.9753,1.9917,1.9934,1.9951,2.0076,2.0009,2.0018,2.0023,2.032,2.0323,2.0326,0,0,0,0,0,0,1.9393,1.9418,1.9641,1.9545,1.9573,1.9647,1.9703,1.9715,1.9754,1.9835,1.9848,1.9781,1.9916,1.9938,2.0042,2.0082,2.0022,2.003,2.0317,2.0321,2.0325,2.0327,0,0,0,0,0,0,1.9384,1.9416,1.9454,1.9545,1.9578,1.9727,1.9706,1.9719,1.9769,1.9769,1.9863,1.9877,1.9916,2.0028,2.0051,2.0094,2.0038,2.0314,2.0319,2.0323,2.0323,2.033,2.0336,0,0,0,0,0,1.9373,1.945,1.9456,1.9482,1.9628,1.973,1.9749,1.979,1.9772,1.9812,1.9864,1.9874,2.0074,2.0038,2.0064,2.0111,2.0311,2.0317,2.0323,2.032,2.0329,2.0336,0,0,0,0,0,0,1.9364,1.9462,1.9471,1.9578,1.9645,1.9734,1.9785,1.9798,1.9873,1.987,1.992,1.9941,2.0042,2.0087,2.0045,2.0214,2.0192,2.0203,2.0181,2.0189,2.0195,2.0182,2.0045,0,0,0,0,0,1.9374,1.9447,1.953,1.9617,1.9649,1.9711,1.9757,1.9783,1.9855,1.9884,1.9944,2.0014,2.0093,2.0144,2.0221,2.033,2.0351,2.0375,2.0381,2.0386,2.0395,2.0455,2.0466,2.0345,2.0345,2.0345,0,0,1.9396,1.9459,1.9502,1.9616,1.9671,1.9746,1.9735,1.9816,1.9872,1.9897,1.9997,2.0044,2.0126,2.0232,2.0282,2.0273,2.0433,2.0394,2.0397,2.0404,2.0462,2.0474,2.0484,2.0349,2.0349,2.0348,0,0,1.9474,1.9529,1.9607,1.9661,1.9744,1.9784,1.9803,1.989,1.9921,2.0022,2.0042,2.011,2.0245,2.0302,2.0349,2.0448,2.0459,2.0472,2.0505,2.0562,2.0572,2.058,2.0614,2.0626,2.048,2.0481,2.0481,0,1.9491,1.9604,1.9645,1.9724,1.9774,1.9798,1.9877,1.9929,2.0033,2.0067,2.0055,2.0223,2.0281,2.04,2.0423,2.0461,2.0484,2.0461,2.0567,2.0576,2.0585,2.0617,2.063,2.0481,2.0481,2.0481,2.0481,0,1.962,1.9698,1.9751,1.9849,1.9904,1.9983,2.0037,2.0089,2.011,2.0152,2.0255,2.0324,2.0414,2.0445,2.0468,2.0567,2.0559,2.0556,2.0534,2.0596,2.0628,2.0641,2.0483,2.0482,2.0482,2.0482,0,0,1.9696,1.9815,1.9834,1.9878,1.997,2.0032,2.0112,2.0199,2.0241,2.0312,2.038,2.0493,2.0491,2.0544,2.0573,2.0624,2.0695,2.0615,2.0618,2.0626,2.0808,2.0808,2.0822,2.0704,2.0707,2.0709,2.0801,0,1.9784,1.9925,1.9965,2.0085,2.0157,2.0181,2.0251,2.0315,2.0356,2.0424,2.0471,2.0549,2.0541,2.0573,2.0624,2.0676,2.0732,2.067,2.0768,2.0771,2.0745,2.0839,2.084,2.0923,2.0813,2.0816,2.0817,0,1.9905,1.9976,2.0102,2.0184,2.0216,2.0278,2.036,2.0425,2.0498,2.0525,2.0583,2.0607,2.0692,2.0666,2.0783,2.074,2.0782,2.0814,2.0818,2.0828,2.0797,2.085,2.0951,2.0963,2.0837,2.0836,2.0834,0,1.9946,2.0074,2.0165,2.0203,2.0301,2.0343,2.0386,2.0458,2.0507,2.058,2.0612,2.0694,2.0739,2.0802,2.0848,2.0825,2.0961,2.0939,2.0985,2.0984,2.1012,2.1009,2.112,2.1042,2.1041,2.1041,2.1041,0,2.0039,2.0115,2.0185,2.0241,2.0327,2.0372,2.0456,2.0501,2.0564,2.0629,2.0656,2.0718,2.0775,2.0844,2.0881,2.0972,2.0992,2.1016,2.1025,2.1013,2.101,2.1041,2.1036,2.1045,2.1044,2.1043,2.1043,0,2.0098,2.0148,2.025,2.0334,2.0357,2.0416,2.0489,2.0544,2.0586,2.0669,2.0691,2.0758,2.084,2.0892,2.0998,2.1023,2.1122,2.113,2.1096,2.11,2.1142,2.1137,2.1276,2.1296,2.1205,2.1206,2.1207,0,2.0154,2.0212,2.0302,2.0347,2.039,2.0463,2.0513,2.056,2.0611,2.0699,2.0744,2.0828,2.0897,2.1028,2.1087,2.1168,2.1176,2.1219,2.1189,2.1174,2.1175,2.117,2.1176,2.1224,2.1225,2.1225,2.1226,0,2.0246,2.0267,2.0337,2.0416,2.0474,2.0539,2.0604,2.0639,2.0698,2.0754,2.0837,2.0891,2.0998,2.1081,2.1166,2.1212,2.1229,2.1235,2.125,2.1237,2.1215,2.1226,2.1108,2.1231,2.1231,2.123,2.123,2.123,2.0304,2.0357,2.0427,2.0504,2.0558,2.0617,2.0673,2.0721,2.0792,2.0881,2.0905,2.0992,2.1064,2.1181,2.1228,2.1297,2.1292,2.1314,2.1319,2.1323,2.1323,2.1205,2.1314,2.1314,2.1314,2.1313,2.1313,0,2.0396,2.0442,2.0513,2.0601,2.0662,2.0671,2.0743,2.0793,2.0869,2.0934,2.1001,2.1097,2.1177,2.1242,2.1324,2.1367,2.1377,2.1387,2.1384,2.1394,2.1324,2.1302,2.1378,2.1378,2.1378,2.1378,2.1378,2.1378,2.0451,2.0539,2.0569,2.0685,2.0732,2.0816,2.0856,2.0911,2.0963,2.1068,2.1134,2.1175,2.124,2.1327,2.1401,2.1418,2.1447,2.1455,2.1473,2.1406,2.1399,2.1392,2.1372,2.1461,2.1462,2.1538,2.1538,2.1539]},{"header":{"parameterUnit":"m.s-1","parameterCategory":1,"la1":30.2991,"la2":30.254,"lo1":-89.0895,"lo2":-89.0444,"dy":0.0017,"dx":0.0017,"nx":28,"ny":28,"refTime":"2024-08-13T09:00:00:Z","depth":0,"parameterNumber":3,"parameterNumberName":"V-component_of_WINDS"},"data":[0,0,0,0,0,0,0,0,0,0,0,0,0,0,0,0,0,0,0,0,0,0,0,0,0,0,0,0,0,0,0,0,0,0,0,0,0,0,0,0,0,0,0,0,0,0,0,0,0,0,0,0,0,0,0,0,0,0,4.3729,4.3729,0,4.3696,4.3696,4.3696,4.3642,4.3641,4.364,4.3639,4.3603,4.3603,4.3603,0,0,0,0,0,0,0,0,0,0,0,0,0,4.374,4.374,4.3729,4.3729,4.3728,4.3696,4.3696,4.3696,4.3642,4.3641,4.364,4.3638,4.3603,4.3603,4.3603,0,0,0,0,0,0,0,0,0,0,0,0,0,4.3724,4.374,4.3729,4.3698,4.3695,4.3697,4.3696,4.3695,4.3642,4.3641,4.3639,4.3638,4.3603,4.3603,4.3602,4.3632,0,0,4.3602,4.3602,0,0,0,0,0,0,0,0,4.3725,4.3724,4.3703,4.37,4.3696,4.3672,4.3687,4.3674,4.3643,4.3662,4.3639,4.3637,4.3627,4.3624,4.3621,4.363,4.3628,4.3602,4.3602,4.3602,4.3602,0,0,0,0,0,0,0,4.3726,4.3725,4.3716,4.3702,4.3699,4.3684,4.368,4.3684,4.3653,4.366,4.3656,4.3653,4.3625,4.3622,4.362,4.3628,4.3602,4.3602,4.3602,4.3602,4.3653,4.3654,0,0,0,0,0,0,4.3733,4.3726,4.3717,4.3715,4.3708,4.3685,4.368,4.3681,4.3653,4.3647,4.3655,4.3651,4.3623,4.362,4.3619,4.3647,4.3602,4.3602,4.3602,4.3652,4.3653,4.3655,0,0,0,0,0,0,4.3733,4.3732,4.3718,4.3719,4.3717,4.3686,4.3687,4.3681,4.3678,4.3648,4.3642,4.3658,4.3621,4.3619,4.3628,4.3645,4.3602,4.3602,4.365,4.3652,4.3654,4.3706,0,0,0,0,0,0,4.3734,4.3733,4.3745,4.372,4.3717,4.373,4.3689,4.3682,4.3679,4.3673,4.365,4.3644,4.362,4.3628,4.3628,4.3644,4.3602,4.3648,4.3651,4.3653,4.3703,4.371,4.3716,0,0,0,0,0,4.3734,4.3761,4.3746,4.3745,4.3731,4.3731,4.3729,4.3701,4.368,4.3691,4.3671,4.3645,4.3644,4.363,4.3629,4.3645,4.3647,4.365,4.3653,4.37,4.3709,4.3716,0,0,0,0,0,0,4.3788,4.3758,4.374,4.376,4.3749,4.3722,4.3734,4.3712,4.3705,4.37,4.3665,4.366,4.3673,4.366,4.3645,4.3669,4.3641,4.3644,4.3677,4.3685,4.3691,4.3693,4.3602,0,0,0,0,0,4.3803,4.3806,4.3779,4.3799,4.3794,4.3766,4.3764,4.3744,4.373,4.3724,4.3706,4.3692,4.3688,4.3686,4.3682,4.3702,4.3693,4.3712,4.3719,4.3724,4.3726,4.3732,4.3739,4.3665,4.3665,4.3665,0,0,4.3832,4.3816,4.382,4.3809,4.3798,4.38,4.3762,4.3767,4.3767,4.3725,4.3731,4.3717,4.3699,4.3713,4.3718,4.3703,4.3745,4.3728,4.3733,4.3732,4.3736,4.3743,4.3749,4.3667,4.3667,4.3667,0,0,4.3886,4.3876,4.389,4.3879,4.3862,4.3842,4.3846,4.3822,4.381,4.3817,4.3784,4.3784,4.3779,4.3766,4.3759,4.3806,4.378,4.3806,4.3839,4.3844,4.385,4.3855,4.3868,4.3873,4.3808,4.3808,4.3809,0,4.3924,4.3928,4.3899,4.3905,4.39,4.3863,4.3874,4.3865,4.3847,4.3843,4.3827,4.3818,4.3804,4.3811,4.3822,4.382,4.382,4.3807,4.3852,4.3856,4.386,4.3872,4.3877,4.3811,4.3811,4.3811,4.381,0,4.3973,4.3976,4.3989,4.3972,4.3969,4.3978,4.3949,4.3948,4.3928,4.3909,4.3914,4.3895,4.3884,4.3885,4.3866,4.3889,4.388,4.3859,4.3829,4.3871,4.3881,4.3886,4.3816,4.3814,4.3814,4.3813,0,0,4.4059,4.4026,4.4031,4.4021,4.3999,4.4,4.4006,4.3995,4.3994,4.3983,4.3984,4.398,4.3959,4.3951,4.393,4.3935,4.3968,4.3912,4.3911,4.392,4.3988,4.4002,4.4008,4.3952,4.3953,4.3953,4.3988,0,4.4106,4.4115,4.4089,4.4103,4.4103,4.4067,4.4072,4.4057,4.404,4.4036,4.4016,4.4012,4.3987,4.3981,4.3985,4.3963,4.3981,4.3961,4.395,4.395,4.3952,4.4014,4.4029,4.4063,4.3993,4.3993,4.3994,0,4.4161,4.4152,4.4167,4.4141,4.414,4.4145,4.4131,4.4129,4.411,4.4097,4.4087,4.4062,4.4063,4.4037,4.4036,4.4023,4.4017,4.4006,4.4006,4.4002,4.3972,4.4008,4.4074,4.4078,4.4001,4.4,4.4,0,4.4217,4.4209,4.4216,4.4209,4.418,4.4184,4.4172,4.4152,4.4147,4.4135,4.413,4.4119,4.4111,4.4102,4.4073,4.4057,4.4074,4.4046,4.406,4.406,4.4063,4.4063,4.4126,4.4065,4.4065,4.4065,4.4065,0,4.4269,4.4279,4.424,4.4244,4.4252,4.4222,4.423,4.4214,4.4197,4.4195,4.4164,4.4163,4.4127,4.412,4.4098,4.4098,4.4096,4.4083,4.4076,4.4084,4.4085,4.4078,4.4073,4.4066,4.4066,4.4066,4.4065,0,4.4332,4.4307,4.4311,4.4284,4.4277,4.4284,4.4259,4.426,4.424,4.4238,4.4236,4.4205,4.4196,4.4167,4.4151,4.4135,4.4141,4.4131,4.4147,4.4142,4.4156,4.4154,4.4214,4.4219,4.4159,4.4159,4.416,0,4.4365,4.4372,4.4344,4.4341,4.433,4.4326,4.432,4.429,4.4284,4.4263,4.4265,4.4254,4.4243,4.423,4.4204,4.419,4.4177,4.4199,4.4175,4.4181,4.4173,4.4172,4.4171,4.4204,4.4205,4.4205,4.4206,0,4.4426,4.4412,4.4406,4.4394,4.4387,4.4376,4.4363,4.4362,4.4328,4.4323,4.4313,4.4305,4.4287,4.4275,4.4257,4.4242,4.4217,4.4214,4.4216,4.4222,4.423,4.4222,4.4158,4.4212,4.4212,4.4211,4.4211,4.421,4.4472,4.4474,4.4455,4.4447,4.4434,4.4423,4.4421,4.4401,4.4393,4.4377,4.436,4.4352,4.433,4.4304,4.4291,4.4282,4.4269,4.4273,4.4273,4.4273,4.4275,4.4234,4.4279,4.4279,4.4279,4.4278,4.4278,0,4.4527,4.4513,4.4506,4.4489,4.4482,4.4461,4.4445,4.444,4.4434,4.4417,4.4406,4.4394,4.4381,4.4355,4.4339,4.4337,4.4325,4.4333,4.4332,4.4328,4.429,4.4288,4.4343,4.4343,4.4343,4.4343,4.4343,4.4343,4.4555,4.4557,4.4541,4.4536,4.4521,4.4513,4.4505,4.4493,4.4479,4.4467,4.4457,4.444,4.4418,4.44,4.4387,4.4379,4.4373,4.4385,4.4373,4.4337,4.4331,4.4325,4.4323,4.4385,4.4385,4.4411,4.4412,4.4412]}]]